When you browse on this site, cookies collect data to enhance your experience and personalize the content and advertising you see.
Visit our Privacy Policy to learn more. By continuing to use the site, you agree to this use of cookies and data.
  • In Hungary
  • List of Countries
  • For 7 days
  • Water Temperature
  • Satellite Maps
  • Weather Map
  • News
  • Weather Widgets
  • user-avatar
    Login

    Hourly Weather Postol'ne

    Today, 16 July, Tuesday

    Time Temperature Precipitation Wind Pressure Humidity
    00:00 +17°C° 0.5 mm 2 mps 740 mmHg 80%
    01:00 +17°C° 0.5 mm 2 mps 740 mmHg 83%
    02:00 +16°C° 0 mm 3 mps 740 mmHg 93%
    03:00 +16°C° 0.1 mm 3 mps 739 mmHg 92%
    04:00 +16°C° 0.1 mm 3 mps 739 mmHg 92%
    05:00 +17°C° 0.1 mm 2 mps 739 mmHg 91%
    06:00 +18°C° 0.1 mm 2 mps 739 mmHg 87%
    07:00 +19°C° 0.1 mm 3 mps 739 mmHg 83%
    08:00 +20°C° 0.1 mm 3 mps 740 mmHg 78%
    09:00 +21°C° 0.9 mm 3 mps 739 mmHg 75%
    10:00 +22°C° 0.9 mm 3 mps 739 mmHg 71%
    11:00 +24°C° 0.9 mm 3 mps 739 mmHg 67%
    12:00 +24°C° 0.8 mm 3 mps 739 mmHg 67%
    13:00 +24°C° 0.8 mm 3 mps 739 mmHg 66%
    14:00 +23°C° 0.8 mm 4 mps 739 mmHg 65%
    15:00 +22°C° 0.3 mm 4 mps 739 mmHg 70%
    16:00 +21°C° 0.3 mm 4 mps 739 mmHg 74%
    17:00 +20°C° 0.3 mm 4 mps 739 mmHg 79%
    18:00 +19°C° 0 mm 3 mps 739 mmHg 83%
    19:00 +18°C° 0 mm 3 mps 739 mmHg 87%
    20:00 +17°C° 0 mm 2 mps 739 mmHg 92%
    21:00 +17°C° 0 mm 2 mps 739 mmHg 92%
    22:00 +17°C° 0 mm 2 mps 739 mmHg 92%
    23:00 +16°C° 0 mm 1 mps 739 mmHg 92%

    Tomorrow, 17 July, Wednesday

    Time Temperature Precipitation Wind Pressure Humidity
    00:00 +16°C° 0 mm 1 mps 739 mmHg 93%
    01:00 +16°C° 0 mm 1 mps 738 mmHg 93%
    02:00 +14°C° 0 mm 0 mps 738 mmHg 94%
    03:00 +15°C° 0 mm 0 mps 738 mmHg 93%
    04:00 +16°C° 0 mm 1 mps 738 mmHg 93%
    05:00 +16°C° 0 mm 1 mps 738 mmHg 93%
    06:00 +18°C° 0 mm 1 mps 738 mmHg 89%
    07:00 +19°C° 0 mm 1 mps 738 mmHg 84%
    08:00 +20°C° 0 mm 2 mps 738 mmHg 80%
    09:00 +21°C° 0.5 mm 2 mps 738 mmHg 75%
    10:00 +22°C° 0.5 mm 3 mps 738 mmHg 70%
    11:00 +23°C° 0.5 mm 4 mps 738 mmHg 66%
    12:00 +23°C° 0.1 mm 4 mps 738 mmHg 62%
    13:00 +25°C° 0.1 mm 4 mps 738 mmHg 59%
    14:00 +25°C° 0.1 mm 5 mps 738 mmHg 56%
    15:00 +25°C° 0.1 mm 5 mps 738 mmHg 59%
    16:00 +23°C° 0.1 mm 4 mps 738 mmHg 62%
    17:00 +23°C° 0.1 mm 4 mps 738 mmHg 65%
    18:00 +21°C° 0.1 mm 3 mps 738 mmHg 72%
    19:00 +19°C° 0.1 mm 3 mps 738 mmHg 79%
    20:00 +17°C° 0.1 mm 2 mps 739 mmHg 85%
    21:00 +17°C° 0 mm 2 mps 739 mmHg 86%
    22:00 +16°C° 0 mm 2 mps 739 mmHg 87%
    23:00 +16°C° 0 mm 2 mps 739 mmHg 88%

    Day after tomorrow, 18 July, Thursday

    Time Temperature Precipitation Wind Pressure Humidity
    00:00 +15°C° 0 mm 2 mps 739 mmHg 89%
    01:00 +15°C° 0 mm 2 mps 739 mmHg 89%
    02:00 +15°C° 0 mm 2 mps 739 mmHg 89%
    03:00 +15°C° 0 mm 2 mps 739 mmHg 89%
    04:00 +15°C° 0 mm 2 mps 739 mmHg 89%
    05:00 +15°C° 0 mm 2 mps 739 mmHg 89%
    06:00 +17°C° 0 mm 2 mps 740 mmHg 83%
    07:00 +18°C° 0 mm 3 mps 740 mmHg 78%
    08:00 +20°C° 0 mm 3 mps 740 mmHg 72%
    09:00 +21°C° 0.1 mm 4 mps 740 mmHg 68%
    10:00 +22°C° 0.1 mm 4 mps 740 mmHg 64%
    11:00 +23°C° 0.1 mm 5 mps 740 mmHg 60%
    12:00 +23°C° 0 mm 5 mps 740 mmHg 59%
    13:00 +23°C° 0 mm 5 mps 740 mmHg 57%
    14:00 +23°C° 0 mm 5 mps 740 mmHg 55%
    15:00 +23°C° 0 mm 5 mps 741 mmHg 57%
    16:00 +23°C° 0 mm 5 mps 741 mmHg 60%
    17:00 +22°C° 0 mm 4 mps 741 mmHg 62%
    18:00 +21°C° 0 mm 4 mps 741 mmHg 67%
    19:00 +19°C° 0 mm 3 mps 742 mmHg 73%
    20:00 +18°C° 0 mm 2 mps 742 mmHg 78%
    21:00 +17°C° 0 mm 2 mps 742 mmHg 79%
    22:00 +16°C° 0 mm 2 mps 742 mmHg 80%
    23:00 +16°C° 0 mm 2 mps 742 mmHg 81%

    19 July, Friday

    Time Temperature Precipitation Wind Pressure Humidity
    00:00 +15°C° 0 mm 2 mps 743 mmHg 83%
    01:00 +15°C° 0 mm 2 mps 743 mmHg 84%
    02:00 +15°C° 0 mm 2 mps 743 mmHg 86%
    03:00 +15°C° 0 mm 2 mps 743 mmHg 86%
    04:00 +15°C° 0 mm 2 mps 743 mmHg 86%
    05:00 +15°C° 0 mm 2 mps 743 mmHg 86%
    06:00 +17°C° 0 mm 3 mps 743 mmHg 81%
    07:00 +18°C° 0 mm 3 mps 744 mmHg 76%
    08:00 +20°C° 0 mm 3 mps 744 mmHg 71%
    09:00 +21°C° 0.1 mm 4 mps 744 mmHg 67%
    10:00 +22°C° 0.1 mm 4 mps 744 mmHg 64%
    11:00 +23°C° 0.1 mm 4 mps 744 mmHg 60%
    12:00 +25°C° 0.1 mm 5 mps 744 mmHg 59%
    13:00 +25°C° 0.1 mm 5 mps 744 mmHg 58%
    14:00 +25°C° 0.1 mm 5 mps 744 mmHg 57%
    15:00 +25°C° 0.1 mm 5 mps 744 mmHg 59%
    16:00 +25°C° 0.1 mm 4 mps 744 mmHg 62%
    17:00 +23°C° 0.1 mm 4 mps 744 mmHg 65%
    18:00 +22°C° 0.2 mm 4 mps 744 mmHg 72%
    19:00 +20°C° 0.2 mm 3 mps 745 mmHg 79%
    20:00 +18°C° 0.2 mm 2 mps 745 mmHg 86%
    21:00 +18°C° 0 mm 2 mps 745 mmHg 88%
    22:00 +17°C° 0 mm 2 mps 746 mmHg 89%
    23:00 +17°C° 0 mm 2 mps 746 mmHg 90%

    20 July, Saturday

    Time Temperature Precipitation Wind Pressure Humidity
    00:00 +17°C° 0 mm 2 mps 746 mmHg 91%
    01:00 +16°C° 0 mm 2 mps 746 mmHg 91%
    02:00 +16°C° 0 mm 2 mps 746 mmHg 91%
    03:00 +16°C° 0 mm 2 mps 746 mmHg 91%
    04:00 +16°C° 0 mm 2 mps 746 mmHg 91%
    05:00 +16°C° 0 mm 1 mps 747 mmHg 90%
    06:00 +18°C° 0 mm 2 mps 747 mmHg 83%
    07:00 +20°C° 0 mm 2 mps 747 mmHg 76%
    08:00 +23°C° 0 mm 2 mps 747 mmHg 69%
    09:00 +24°C° 0 mm 2 mps 747 mmHg 64%
    10:00 +25°C° 0 mm 3 mps 748 mmHg 58%
    11:00 +26°C° 0 mm 3 mps 748 mmHg 53%
    12:00 +27°C° 0 mm 3 mps 748 mmHg 52%
    13:00 +27°C° 0 mm 3 mps 747 mmHg 52%
    14:00 +27°C° 0 mm 3 mps 747 mmHg 51%
    15:00 +27°C° 0 mm 3 mps 747 mmHg 52%
    16:00 +27°C° 0 mm 2 mps 747 mmHg 54%
    17:00 +27°C° 0 mm 2 mps 747 mmHg 55%
    18:00 +25°C° 0 mm 1 mps 747 mmHg 60%
    19:00 +23°C° 0 mm 1 mps 747 mmHg 66%
    20:00 +19°C° 0 mm 0 mps 747 mmHg 71%
    21:00 +21°C° 0 mm 1 mps 747 mmHg 71%
    22:00 +21°C° 0 mm 1 mps 747 mmHg 70%
    23:00 +20°C° 0 mm 1 mps 747 mmHg 70%

    21 July, Sunday

    Time Temperature Precipitation Wind Pressure Humidity
    00:00 +20°C° 0 mm 1 mps 747 mmHg 70%
    01:00 +20°C° 0 mm 1 mps 747 mmHg 70%
    02:00 +19°C° 0 mm 2 mps 747 mmHg 69%
    03:00 +20°C° 0 mm 1 mps 747 mmHg 71%
    04:00 +20°C° 0 mm 1 mps 746 mmHg 73%
    05:00 +20°C° 0 mm 1 mps 746 mmHg 74%
    06:00 +20°C° 0 mm 1 mps 746 mmHg 73%
    07:00 +21°C° 0 mm 1 mps 746 mmHg 72%
    08:00 +22°C° 0 mm 1 mps 746 mmHg 70%
    09:00 +23°C° 0 mm 1 mps 746 mmHg 66%
    10:00 +24°C° 0 mm 2 mps 747 mmHg 62%
    11:00 +26°C° 0 mm 2 mps 747 mmHg 58%
    12:00 +27°C° 0.1 mm 3 mps 746 mmHg 56%
    13:00 +27°C° 0.1 mm 3 mps 746 mmHg 54%
    14:00 +28°C° 0.1 mm 4 mps 746 mmHg 52%
    15:00 +27°C° 1 mm 4 mps 745 mmHg 58%
    16:00 +27°C° 1 mm 3 mps 745 mmHg 65%
    17:00 +26°C° 1 mm 3 mps 745 mmHg 71%
    18:00 +24°C° 0.3 mm 3 mps 745 mmHg 76%
    19:00 +23°C° 0.3 mm 2 mps 745 mmHg 82%
    20:00 +21°C° 0.3 mm 1 mps 746 mmHg 87%
    21:00 +20°C° 0 mm 2 mps 746 mmHg 89%
    22:00 +19°C° 0 mm 2 mps 746 mmHg 91%
    23:00 +18°C° 0 mm 2 mps 746 mmHg 93%
    Show more